This is the latest recevied weather packets stored in our database for station/object EA1HTW-1. If no packets are shown the sender has not sent any weather packets the latest 10 day(s).
| Time | Temp. | Humidity | Pressure | Rain* | Wind** | Luminosity | Snow |
|---|---|---|---|---|---|---|---|
| 1778044767 | 6.11° C | 97% | 987.1 hPa | 0 mm | - | - | - |
| 1778044167 | 6.67° C | 97% | 986.9 hPa | 0 mm | - | - | - |
| 1778042966 | 6.11° C | 97% | 987 hPa | 0 mm | - | - | - |
| 1778041167 | 6.11° C | 96% | 987.5 hPa | 0 mm | - | - | - |
| 1778040568 | 6.11° C | 96% | 987.5 hPa | 0 mm | - | - | - |
| 1778039968 | 6.67° C | 96% | 987.4 hPa | 0 mm | - | - | - |
| 1778038767 | 7.22° C | 96% | 987.4 hPa | 0 mm | - | - | - |
| 1778036967 | 7.22° C | 96% | 987.6 hPa | 0 mm | - | - | - |
| 1778036367 | 7.22° C | 96% | 987.8 hPa | 0 mm | - | - | - |
| 1778035768 | 7.22° C | 96% | 987.6 hPa | 0 mm | - | - | - |
| 1778035166 | 7.78° C | 96% | 987.7 hPa | 0 mm | - | - | - |
| 1778034568 | 7.78° C | 96% | 987.6 hPa | 0 mm | - | - | - |
| 1778033967 | 7.78° C | 96% | 987.7 hPa | 0 mm | - | - | - |
| 1778033368 | 7.78° C | 96% | 987.7 hPa | 0 mm | - | - | - |
| 1778032766 | 8.33° C | 96% | 988 hPa | 0 mm | - | - | - |
| 1778032168 | 7.78° C | 96% | 987.9 hPa | 0 mm | - | - | - |
| 1778031566 | 7.78° C | 95% | 988 hPa | 0 mm | - | - | - |
| 1778031046 | 8.33° C | 95% | 988.2 hPa | 0 mm | - | - | - |
| 1778030967 | 8.33° C | 95% | 988.2 hPa | 0 mm | - | - | - |
| 1778030367 | 8.33° C | 95% | 988.3 hPa | 0 mm | - | - | - |
| 1778029768 | 7.78° C | 95% | 988.3 hPa | 0 mm | - | - | - |
| 1778028566 | 8.33° C | 95% | 988.5 hPa | 0 mm | - | - | - |
| 1778027965 | 8.33° C | 95% | 988.6 hPa | 0 mm | - | - | - |
| 1778027367 | 7.78° C | 95% | 988.6 hPa | 0 mm | - | - | - |
| 1778026766 | 8.33° C | 95% | 988.8 hPa | 0 mm | - | - | - |
* Rain latest hour (hover to see other rain measurements)
** Current wind speed in m/s (hover to see current wind gust speed)